Weather History for KVIH - January, 2014

Change the Weather History Date:

Saturday, January 25, 2014

  Actual Average Record
Temperature  
Mean Temperature 32 °F 31 °F  
Max Temperature 47 °F 41 °F 75 °F (1950)
Min Temperature 16 °F 22 °F -14 °F (1905)
Degree Days  
Heating Degree Days 33 34  
Month to date heating degree days 966 850  
Since 1 July heating degree days 3053 2767  
Cooling Degree Days 0 0  
Month to date cooling degree days 0 0  
Year to date cooling degree days 0 0  
Moisture  
Dew Point 13 °F    
Average Humidity 42    
Maximum Humidity 67    
Minimum Humidity 17    
Precipitation  
Precipitation 0.00 in 0.07 in 0.81 in (1950)
Month to date precipitation 0.85 1.81  
Year to date precipitation 0.85 1.81  
Sea Level Pressure  
Sea Level Pressure 29.87 in    
Wind  
Wind Speed 15 mph (West)    
Max Wind Speed 33 mph    
Max Gust Speed 43 mph    
Visibility 10 miles    
Events      
T = Trace of Precipitation, MM = Missing Value Source: NWS Daily Summary

Daily Weather History Graph

Daily Weather History Graph

Search for Another Location

Airport or City:

Trip Planner

Search our weather history database for the weather conditions in past years. The results will help you decide how hot, cold, wet, or windy it might be!

Date:

Astronomy

Jan. 25, 2014 Rise Set
Actual Time 7:17 AM CST 5:22 PM CST
Civil Twilight 6:48 AM CST 5:50 PM CST
Nautical Twilight 6:16 AM CST 6:22 PM CST
Astronomical Twilight 5:45 AM CST 6:53 PM CST
Moon 1:49 AM CST (1/25) 12:22 PM CST (1/25)
Length of Visible Light 11h 01m
Length of Day
10h 05m
Waning Crescent, 34% of the Moon is Illuminated
Jan 25
Waning Crescent
Jan 30
New
Feb 6
First Quarter
Feb 14
Full
Feb 22
Last Quarter

Hourly Weather History & Observations

Time (CST) Temp. Windchill Dew Point Humidity Pressure Visibility Wind Dir Wind Speed Gust Speed Precip Events Conditions
12:53 AM 37.0 °F 26.7 °F 10.0 °F 33% 29.77 in 10.0 mi SW 19.6 mph 27.6 mph N/A   Overcast
1:53 AM 37.0 °F 27.4 °F 10.9 °F 34% 29.73 in 10.0 mi WSW 17.3 mph 25.3 mph N/A   Overcast
2:53 AM 37.9 °F 28.5 °F 12.0 °F 35% 29.74 in 10.0 mi WSW 17.3 mph - N/A   Overcast
3:53 AM 39.9 °F 30.5 °F 14.0 °F 35% 29.74 in 10.0 mi WSW 19.6 mph - N/A   Mostly Cloudy
4:53 AM 39.9 °F 31.4 °F 17.1 °F 40% 29.75 in 10.0 mi West 16.1 mph 26.5 mph N/A   Overcast
5:53 AM 41.0 °F 32.8 °F 21.0 °F 45% 29.78 in 10.0 mi West 16.1 mph 27.6 mph N/A   Overcast
6:53 AM 39.9 °F 32.9 °F 24.1 °F 53% 29.80 in 10.0 mi WNW 11.5 mph - N/A   Partly Cloudy
7:53 AM 39.9 °F 31.8 °F 26.1 °F 58% 29.84 in 10.0 mi WNW 15.0 mph - N/A   Clear
8:53 AM 43.0 °F 35.7 °F 27.0 °F 53% 29.86 in 10.0 mi WNW 15.0 mph 23.0 mph N/A   Clear
9:53 AM 45.0 °F 36.2 °F 28.0 °F 52% 29.86 in 10.0 mi WNW 24.2 mph 32.2 mph N/A   Scattered Clouds
10:53 AM 45.0 °F 35.8 °F 27.0 °F 49% 29.89 in 10.0 mi NW 26.5 mph 38.0 mph N/A   Overcast
11:53 AM 45.0 °F 37.1 °F 21.9 °F 40% 29.89 in 10.0 mi NW 19.6 mph 39.1 mph N/A   Mostly Cloudy
12:53 PM 46.0 °F 38.0 °F 25.0 °F 44% 29.89 in 10.0 mi NW 21.9 mph 33.4 mph N/A   Mostly Cloudy
1:53 PM 43.0 °F 32.9 °F 23.0 °F 45% 29.91 in 10.0 mi NW 27.6 mph 36.8 mph 0.00 in   Scattered Clouds
2:53 PM 41.0 °F 32.2 °F 6.1 °F 24% 29.94 in 10.0 mi NNW 18.4 mph 26.5 mph N/A   Clear
3:53 PM 39.0 °F 30.3 °F -2.0 °F 18% 29.96 in 10.0 mi NW 16.1 mph 26.5 mph N/A   Clear
4:53 PM 36.0 °F 29.0 °F 1.0 °F 23% 29.96 in 10.0 mi NNW 9.2 mph - N/A   Clear
5:54 PM 30.9 °F 22.2 °F 3.0 °F 31% 29.98 in 10.0 mi West 10.4 mph - N/A   Unknown
6:53 PM 28.0 °F 21.7 °F -0.9 °F 29% 29.99 in 10.0 mi NW 5.8 mph - N/A   Clear
7:53 PM 27.0 °F - 1.0 °F 33% 29.98 in 10.0 mi Calm Calm - N/A   Clear
8:53 PM 18.0 °F 11.1 °F 8.1 °F 65% 29.96 in 10.0 mi SW 4.6 mph - N/A   Clear
9:53 PM 19.9 °F 12.1 °F 6.1 °F 55% 29.94 in 10.0 mi SSW 5.8 mph - N/A   Clear
10:53 PM 19.0 °F 8.2 °F 8.1 °F 62% 29.93 in 10.0 mi South 9.2 mph - N/A   Clear
11:53 PM 25.0 °F 14.8 °F 3.9 °F 41% 29.88 in 10.0 mi South 10.4 mph - N/A   Clear